Weather in Ishimovo

Russia / Perm Krai     56°39′45″N   56°48′00″E
temp.,
°C
wind,
m/s
gust,
m/s
humid.,
%
clouds,
%
prec.,
mm/h
press.,
hPa
HPBL,
m
19 january, wed
wed1923:00−5ssw71593100 0.9 1011740
02:00−5ssw71594100 0.6 1012731
05:00−4ssw61594100 1.3 1013760
08:00−4ssw71493100 0.5 1014771
11:00−4ssw61492100 0.9 1015675
14:00−4ssw61492100 0.2 1017648
17:00−5ssw51392100 0.4 1018589
20:00−5ssw51494100 0.3 1018598
20 january, thu
thu2023:00−6ssw61494100 0.6 1019577
02:00−6s61493100 0.5 1019582
05:00−7ssw61393100 0.9 1020546
08:00−8ssw51393100 0.3 1020522
11:00−8ssw5139399 0.4 1021542
14:00−6ssw51192100 0.1 1021554
17:00−7ssw4119398 0.2 1022397
20:00−9ssw4119490 0.1 1022364
21 january, fri
fri2123:00−10s4109583 0.1 1023311
02:00−12ssw4109468 0.1 1023262
05:00−15s389220 0.1 1024144
08:00−17s26925 0.0 102587
11:00−16s26895 0.0 1025111
14:00−10ssw25835 0.0 1025198
17:00−13s11955 0.0 10269
20:00−18se119816 0.0 10279
22 january, sat
sat2223:00−19ese11995 0.0 10279
02:00−20ese119912 0.0 10289
05:00−21e1110081 0.0 10289
08:00−20e11100100 0.0 10289
11:00−14se1195100 0.0 102836
14:00−9sse1291100 0.0 1028152
17:00−11ene0097100 0.0 10299
20:00−14se0198100 0.0 10309
23 january, sun
sun2323:00−16ese1198100 0.0 103110
02:00−18se119893 0.0 10329
05:00−20ese119839 0.0 10339
08:00−20ese119746 0.0 10349
11:00−16e1190100 0.0 103524
14:00−9ene1178100 0.0 103590
17:00−12ne1193100 0.0 103610
20:00−14e1194100 0.0 103815